Flag for Antigua and Barbuda Weather past 2 weeks in Saint John's, Antigua and Barbuda

Now
82 °F

Passing clouds.


Feels Like: 88 °F
Forecast: 80 / 86 °F
Wind: 9 mph from East

Location: Vc Bird International Antigua Airport

Current Time: Aug 29, 2014 at 11:14:37 PM

Latest Report: Aug 29, 2014 at 10:00 PM


Visibility: N/A

Pressure: 30.01 "Hg

Humidity: 74%

Dew point: 73 °F

Location of Saint John'sLocation

Historic Weather in Saint John's — Graph

°F

Saint John's temperature yesterday

Maximum temperature yesterday: 84 °F (at 11:00 AM)
Minimum temperature yesterday: 75 °F (at 4:00 AM)
Average temperature yesterday: 80 °F

Past Weeks' High & Low Weather Summary

 TemperatureHumidityPressure
High88 °F (Aug 20, 11:00 AM)94% (Aug 16, 5:00 AM)30.07 "Hg (Aug 16, 5:00 AM)
Low75 °F (Aug 28, 4:00 AM)59% (Aug 24, 12:00 PM)29.86 "Hg (Aug 21, 3:00 PM)
Average82 °F77%29.97 "Hg
* Reported Aug 14 10:00 PM — Aug 29 10:00 PM, Saint John's, Weather by CustomWeather, © 2014

Note: Actual official high and low records may vary slightly from our data, if they occured in-between our weather recording intervals... More about our weather records

Advertising

Saint John's weather history for previous 24 hours

 ConditionsComfort  
Time TempWeatherWind HumidityBarometerVisibility
10:00 PM
Aug 29
82 °FPassing clouds.9 mph74%30.01 "HgN/A
9:00 PM82 °FPassing clouds.9 mph74%30.04 "HgN/A
8:00 PM82 °FPassing clouds.9 mph74%30.01 "HgN/A
7:00 PM82 °FPassing clouds.8 mph79%30.01 "HgN/A
6:00 PM82 °FScattered clouds.9 mph74%29.98 "HgN/A
5:00 PM82 °FPassing clouds.9 mph79%29.98 "HgN/A
3:00 PM86 °FScattered clouds.10 mph70%29.98 "HgN/A
2:00 PM84 °FSprinkles. Scattered clouds.12 mph74%29.98 "HgN/A
1:00 PM86 °FScattered clouds.9 mph70%30.01 "HgN/A
12:00 PM84 °FScattered clouds.10 mph74%30.04 "HgN/A
11:00 AM84 °FPassing clouds.10 mph70%30.04 "HgN/A
10:00 AM82 °FScattered clouds.10 mph74%30.04 "HgN/A
9:00 AM82 °FScattered clouds.9 mph79%30.04 "HgN/A
8:00 AM82 °FScattered clouds.8 mph74%30.01 "HgN/A
7:00 AM81 °FBroken clouds.7 mph79%30.01 "HgN/A
6:00 AM81 °FScattered clouds.6 mph79%30.01 "HgN/A
5:00 AM81 °FPassing clouds.7 mph79%29.98 "HgN/A
4:00 AM81 °FPassing clouds.6 mph79%29.98 "HgN/A
3:00 AM81 °FPassing clouds.7 mph79%29.98 "HgN/A
2:00 AM81 °FPassing clouds.6 mph79%30.01 "HgN/A
1:00 AM81 °FPassing clouds.6 mph79%30.01 "HgN/A
12:00 AM81 °FPassing clouds.7 mph79%30.01 "HgN/A
11:00 PM
Aug 28
81 °FPartly cloudy.6 mph84%30.04 "HgN/A
Weather by CustomWeather, © 2014

See weather overviewHow to use our weather pages